Wind_Speed
40 41 41 41 42 43 43 43 44 44 44 45 45 46 47 47 47 46 46 46 45 45 45 46 46 45 46 46 47 48 48 48 48 46 46 46 47 47 47 47 47 47 46
40 41 41 42 42 43 44 44 45 45 45 45 46 47 48 48 48 48 48 47 46 46 46 46 47 47 47 47 47 47 48 48 49 48 47 47 47 48 48 48 49 48 48
41 41 42 43 43 44 44 44 45 46 46 47 47 47 48 48 48 48 48 47 47 47 47 46 47 47 48 48 48 48 48 48 49 50 49 49 49 48 49 49 49 49 50
42 43 43 44 44 44 44 44 45 46 47 47 47 47 48 48 48 48 48 47 47 47 46 46 46 46 47 48 48 48 48 48 48 48 48 49 50 50 51 50 49 49 49
42 43 43 43 43 44 44 45 45 45 47 47 47 47 47 47 47 47 48 47 47 47 47 47 47 48 48 48 49 49 49 48 48 47 47 47 47 48 49 49 49 49 49
42 42 43 43 43 43 44 44 45 46 46 46 46 46 47 47 46 47 47 48 48 47 48 48 49 49 49 49 49 49 49 48 48 47 48 47 47 47 48 49 50 50 50
40 40 40 41 43 44 44 43 44 44 45 45 45 46 46 46 47 47 47 47 47 47 47 48 48 49 49 48 49 48 48 48 48 49 49 48 48 49 49 50 51 51 51
40 40 40 41 41 42 42 42 42 42 42 42 43 44 44 45 46 46 47 46 46 46 46 47 48 47 47 47 47 48 48 49 49 49 49 49 49 49 50 50 50 51 51
38 39 39 40 40 40 41 41 41 41 41 41 41 42 42 43 43 44 45 45 45 45 45 45 46 46 46 47 47 47 47 48 49 49 49 49 48 49 50 51 50 50 50
36 37 37 38 39 39 39 40 40 39 39 39 40 41 41 41 41 42 43 43 44 44 44 43 43 44 44 45 45 46 46 47 47 47 48 48 48 48 50 50 51 50 51
35 35 35 35 36 37 37 37 37 37 38 38 38 39 40 40 41 42 42 42 42 42 42 42 42 42 42 43 43 43 44 44 45 45 46 46 47 48 48 49 50 50 50
34 34 34 34 34 34 35 36 36 36 36 36 37 38 38 38 39 39 40 41 41 41 41 41 41 42 42 42 42 42 43 43 44 44 44 45 46 47 47 48 48 49 48
32 32 32 32 33 33 34 35 34 35 35 36 36 36 36 37 38 38 38 38 39 39 39 39 40 40 40 41 41 42 42 42 43 43 44 44 45 46 47 47 46 46 46
30 30 30 31 32 32 33 33 34 35 35 35 35 35 36 36 37 37 37 37 38 38 39 39 38 39 40 40 41 41 41 41 42 42 43 44 44 45 45 45 45 44 44
28 28 29 30 31 31 31 31 32 33 34 35 35 36 36 36 36 36 36 37 38 38 38 38 38 39 39 39 40 41 41 41 41 41 41 42 43 44 43 43 43 43 43
27 27 29 30 31 31 31 31 31 32 33 34 34 35 35 35 35 35 36 36 36 37 37 37 37 38 39 39 40 40 40 40 40 41 41 42 42 42 42 41 41 41 40
28 28 29 29 30 30 31 31 31 31 32 33 33 33 33 33 33 34 34 35 35 36 36 36 37 37 38 39 39 40 40 40 40 40 41 41 40 40 40 39 39 38 38
27 28 28 29 29 30 30 30 30 30 31 32 32 32 31 32 32 33 34 34 34 34 35 35 35 36 38 38 39 39 39 39 39 39 39 39 39 38 38 37 37 36 35
27 27 27 28 28 29 29 29 30 30 30 30 30 31 31 31 32 32 33 33 33 33 33 34 34 35 35 36 36 37 37 37 37 37 37 37 36 36 35 34 33 33 32
27 27 28 28 28 28 29 30 30 30 30 30 30 31 31 31 31 32 32 32 32 32 32 33 33 33 33 33 34 34 34 34 35 35 34 34 34 33 31 31 30 30 30
27 28 28 28 29 29 29 30 30 30 30 30 30 31 31 31 31 31 31 31 31 31 31 31 31 32 32 31 31 31 31 31 32 32 31 30 29 28 28 28 28 28 27
26 27 27 28 28 28 29 30 30 29 29 29 29 29 29 29 30 30 30 29 29 29 29 30 30 30 29 29 29 29 29 28 28 28 27 26 26 26 25 25 26 26 25
26 27 27 27 28 28 29 29 29 29 28 29 29 28 28 28 28 28 28 28 28 28 28 28 28 28 28 28 28 27 26 26 25 25 24 24 24 24 23 23 24 24 24
26 26 26 27 28 28 28 28 28 27 27 27 28 28 28 28 28 27 27 28 28 28 27 27 27 26 26 26 25 25 24 24 24 23 23 23 22 22 22 22 23 23 23
25 26 26 26 26 26 26 26 25 25 26 26 27 27 28 27 27 27 27 27 27 27 26 26 26 26 25 25 24 24 24 24 23 23 22 21 21 21 21 21 21 21 21
25 25 25 25 25 25 24 24 24 24 25 25 25 26 26 25 25 25 25 26 25 25 25 25 25 24 24 24 24 23 23 23 22 21 20 20 19 19 19 19 19 19 19
Wind_Direction
260 261 262 263 262 262 263 263 264 266 266 266 266 267 268 269 269 269 270 271 271 271 271 271 271 270 269 269 269 270 271 271 271 271 272 273 274 274 275 275 276 277 278
262 262 262 263 264 263 263 263 264 265 266 266 267 267 267 268 269 270 271 271 271 271 271 271 271 271 270 270 270 270 271 272 272 272 273 273 273 273 275 276 276 277 277
263 264 264 263 264 265 265 265 264 264 265 266 266 266 265 266 268 270 270 271 271 271 271 271 272 271 271 271 271 271 272 273 273 273 273 273 273 274 274 276 277 277 277
263 264 264 264 265 266 266 266 266 266 266 266 266 266 265 266 267 269 270 269 270 270 270 271 271 271 271 271 271 272 272 272 273 273 273 273 273 274 275 276 276 276 277
265 265 265 265 266 267 268 268 268 268 268 267 267 266 266 266 267 268 268 269 269 270 270 271 270 270 270 271 271 271 271 272 272 272 273 274 274 275 276 276 277 277 278
265 265 265 265 267 268 268 269 269 269 269 268 267 267 267 267 268 268 269 269 269 269 270 270 270 270 270 270 271 271 271 271 272 272 274 275 275 276 276 277 278 278 279
266 266 266 266 267 269 270 271 270 270 270 268 268 268 268 268 268 268 269 269 270 271 271 270 270 270 271 270 270 270 271 272 273 273 274 276 276 276 277 278 279 280 280
268 267 267 267 269 270 271 272 272 271 270 269 268 269 269 269 269 269 271 271 271 271 271 271 271 271 271 271 271 272 272 273 273 274 274 275 275 277 278 279 279 280 281
271 269 269 269 270 271 272 272 272 272 271 269 269 269 269 269 270 270 271 272 270 270 270 270 271 271 272 272 272 273 273 273 274 275 275 275 275 277 278 279 280 280 281
272 271 270 270 271 271 272 272 273 272 271 270 270 270 270 270 271 271 271 271 270 270 270 270 270 270 270 271 272 274 274 275 275 275 275 275 275 276 277 279 280 280 281
273 272 270 271 272 271 271 271 272 271 270 270 271 271 270 270 270 270 270 270 270 269 269 269 269 269 269 270 272 274 275 275 275 275 275 275 275 276 278 279 280 280 280
274 272 271 272 272 272 271 271 270 269 270 271 272 272 272 272 272 272 271 271 271 270 269 268 268 269 270 271 273 275 276 276 276 276 275 275 276 277 278 279 280 280 280
275 274 272 273 273 273 274 273 270 269 270 271 272 272 273 273 273 273 272 272 272 271 271 270 269 270 271 273 275 276 276 276 277 276 276 276 277 278 278 279 280 280 281
276 275 274 274 274 276 276 274 272 270 270 272 273 273 273 273 274 273 273 273 273 273 272 272 272 272 273 274 276 277 278 278 278 277 277 277 278 279 280 279 280 281 281
278 276 276 276 276 277 277 276 274 272 272 273 273 273 273 274 274 274 275 275 275 274 274 274 273 273 273 275 276 278 279 280 280 280 279 280 280 280 280 280 281 280 280
278 277 278 278 278 278 277 277 276 274 274 274 274 274 274 275 275 276 277 277 277 276 275 274 274 274 275 276 277 278 279 280 280 281 281 282 282 281 281 280 281 281 280
280 280 280 280 280 280 279 278 276 276 277 277 277 276 276 276 277 278 279 279 279 278 277 276 275 275 276 277 278 279 279 280 280 280 281 282 281 281 280 280 281 281 280
281 282 282 282 282 282 281 280 279 278 278 278 278 278 278 279 279 280 281 282 281 280 279 278 277 277 278 278 279 279 280 280 281 281 282 281 281 281 281 281 281 281 280
283 284 285 286 285 284 283 282 281 280 280 280 279 279 280 281 282 282 283 284 283 281 279 279 279 279 281 281 281 281 281 281 281 281 282 281 280 281 281 281 281 280 280
286 286 286 287 286 285 285 284 282 281 280 280 280 280 280 281 282 283 284 284 284 283 282 281 280 281 282 283 283 284 284 282 281 281 282 281 281 281 281 280 281 281 280
287 287 288 289 289 288 287 286 284 282 281 281 281 281 281 282 283 285 286 285 284 283 283 282 281 281 282 283 284 285 285 283 282 281 281 281 281 281 280 280 280 280 280
288 289 290 290 291 290 289 288 286 284 282 281 281 281 281 282 284 285 285 285 284 284 284 283 282 282 282 283 284 284 284 284 283 282 281 280 280 280 280 280 280 279 278
290 291 291 292 293 292 291 290 287 283 282 281 280 280 281 283 285 285 286 286 286 286 285 285 284 283 283 284 284 285 285 285 284 282 282 282 281 280 280 280 279 278 278
292 293 293 293 294 293 292 290 287 284 282 282 281 281 281 283 284 285 285 287 287 287 286 285 285 284 283 283 283 284 285 285 285 284 283 283 281 280 280 279 279 280 280
293 293 293 294 294 294 293 291 289 286 284 284 283 283 282 282 283 284 285 287 288 287 286 285 285 284 282 281 281 283 283 283 283 283 283 282 280 279 280 279 280 282 283
296 295 295 295 296 295 294 293 292 291 289 287 286 285 284 283 283 284 285 287 288 288 288 287 287 285 283 281 281 281 281 282 283 282 281 281 280 279 279 279 281 283 284
Height
5654 5655 5657 5657 5658 5659 5660 5661 5662 5662 5662 5662 5663 5663 5663 5663 5663 5662 5662 5661 5661 5660 5660 5660 5660 5660 5660 5660 5660 5660 5660 5660 5662 5663 5662 5662 5661 5661 5661 5661 5660 5660 5659
5644 5645 5645 5646 5647 5648 5648 5649 5650 5650 5651 5651 5651 5651 5651 5651 5650 5650 5650 5649 5649 5649 5648 5648 5647 5647 5647 5648 5647 5647 5647 5647 5648 5650 5650 5649 5649 5648 5648 5647 5647 5646 5646
5633 5634 5634 5635 5635 5636 5636 5637 5637 5638 5638 5638 5638 5638 5638 5638 5638 5637 5637 5636 5636 5636 5636 5635 5635 5634 5635 5635 5635 5635 5635 5634 5634 5635 5636 5636 5635 5635 5634 5634 5633 5632 5632
5621 5621 5622 5623 5623 5624 5624 5624 5624 5625 5625 5625 5625 5625 5625 5624 5624 5624 5624 5624 5623 5623 5623 5622 5622 5622 5622 5622 5622 5622 5621 5621 5621 5621 5622 5622 5622 5621 5620 5620 5620 5618 5617
5609 5609 5609 5610 5611 5611 5611 5611 5611 5611 5612 5612 5612 5612 5612 5611 5611 5611 5611 5610 5610 5610 5610 5609 5609 5608 5608 5608 5608 5608 5608 5608 5607 5607 5608 5608 5607 5607 5606 5605 5605 5604 5604
5596 5597 5597 5598 5598 5598 5599 5599 5598 5598 5598 5598 5598 5598 5598 5598 5598 5597 5597 5597 5597 5597 5597 5596 5595 5595 5594 5594 5594 5593 5594 5594 5594 5594 5594 5594 5594 5593 5592 5591 5590 5590 5590
5583 5584 5585 5585 5585 5586 5586 5586 5585 5585 5585 5585 5585 5585 5585 5585 5584 5584 5583 5583 5583 5583 5583 5582 5582 5581 5581 5580 5579 5579 5579 5579 5580 5580 5580 5580 5580 5579 5578 5577 5576 5574 5574
5571 5572 5572 5573 5573 5573 5573 5573 5572 5572 5572 5572 5572 5572 5571 5571 5570 5570 5569 5569 5569 5569 5569 5568 5568 5567 5567 5566 5566 5565 5565 5565 5566 5566 5566 5566 5565 5564 5563 5562 5560 5559 5558
5560 5560 5560 5560 5560 5561 5561 5560 5560 5560 5560 5560 5560 5559 5559 5558 5557 5556 5556 5555 5556 5556 5555 5555 5554 5554 5554 5553 5553 5552 5552 5551 5550 5550 5550 5550 5550 5549 5548 5547 5546 5544 5544
5548 5548 5548 5548 5548 5549 5549 5548 5548 5547 5547 5547 5547 5547 5546 5546 5545 5544 5543 5543 5543 5543 5542 5542 5541 5541 5540 5539 5539 5539 5539 5538 5537 5536 5536 5536 5535 5534 5533 5532 5531 5529 5528
5537 5536 5536 5537 5537 5536 5536 5536 5536 5536 5536 5536 5535 5535 5534 5534 5533 5532 5531 5530 5530 5530 5530 5529 5529 5528 5528 5527 5527 5526 5525 5524 5524 5523 5522 5522 5521 5520 5519 5518 5516 5515 5513
5526 5526 5526 5526 5525 5525 5524 5524 5524 5524 5524 5524 5523 5523 5522 5521 5520 5520 5519 5518 5518 5517 5517 5517 5517 5516 5516 5515 5514 5514 5513 5512 5511 5510 5509 5508 5508 5507 5505 5503 5502 5500 5498
5516 5516 5515 5515 5515 5514 5513 5513 5512 5513 5513 5513 5512 5512 5511 5510 5509 5508 5507 5506 5506 5505 5505 5505 5505 5504 5504 5503 5502 5501 5500 5499 5498 5497 5496 5496 5494 5493 5491 5490 5488 5486 5485
5507 5506 5506 5505 5505 5504 5503 5502 5502 5502 5501 5501 5501 5501 5500 5499 5498 5497 5496 5495 5494 5494 5493 5493 5493 5492 5492 5491 5490 5489 5488 5486 5485 5484 5484 5483 5481 5479 5478 5476 5475 5473 5472
5498 5497 5497 5496 5495 5494 5493 5492 5491 5491 5490 5491 5490 5490 5489 5488 5487 5486 5484 5484 5483 5482 5481 5481 5481 5481 5480 5479 5478 5477 5475 5474 5473 5472 5471 5470 5468 5467 5465 5463 5462 5460 5459
5490 5489 5488 5487 5486 5484 5483 5482 5481 5481 5480 5479 5479 5478 5478 5477 5476 5475 5474 5472 5471 5470 5470 5470 5470 5469 5468 5467 5466 5465 5464 5462 5461 5460 5458 5457 5456 5454 5453 5451 5450 5448 5447
5481 5480 5479 5478 5477 5475 5474 5473 5472 5471 5470 5469 5469 5468 5467 5466 5466 5464 5463 5461 5460 5459 5458 5458 5457 5457 5456 5455 5454 5453 5452 5450 5449 5448 5446 5445 5444 5442 5441 5439 5438 5437 5436
5473 5472 5471 5469 5468 5466 5465 5464 5463 5462 5461 5460 5459 5458 5457 5456 5455 5454 5452 5451 5450 5448 5447 5446 5446 5445 5444 5443 5441 5440 5439 5438 5437 5436 5434 5433 5432 5431 5429 5428 5427 5426 5425
5465 5463 5462 5461 5459 5458 5456 5455 5454 5453 5452 5451 5450 5449 5447 5446 5445 5444 5442 5441 5439 5438 5436 5435 5434 5433 5432 5431 5429 5428 5427 5426 5425 5424 5423 5422 5421 5420 5418 5417 5416 5415 5414
5456 5455 5454 5452 5451 5449 5448 5446 5445 5444 5443 5442 5441 5440 5438 5437 5436 5434 5433 5431 5429 5428 5426 5425 5424 5423 5421 5420 5419 5417 5416 5415 5414 5413 5412 5411 5410 5409 5408 5407 5407 5406 5405
5448 5446 5445 5443 5442 5440 5439 5437 5436 5435 5434 5433 5432 5430 5429 5428 5427 5425 5423 5421 5420 5418 5417 5415 5414 5413 5411 5410 5409 5407 5406 5405 5403 5402 5401 5401 5400 5399 5399 5398 5398 5397 5396
5440 5438 5437 5435 5433 5431 5429 5428 5426 5425 5424 5423 5422 5421 5420 5419 5417 5415 5414 5412 5410 5409 5407 5405 5404 5403 5401 5400 5399 5398 5397 5395 5394 5393 5392 5392 5391 5391 5390 5390 5389 5389 5388
5432 5430 5428 5426 5424 5422 5420 5418 5417 5416 5415 5414 5413 5412 5411 5409 5408 5406 5405 5403 5401 5400 5398 5396 5395 5394 5392 5391 5390 5389 5388 5387 5386 5385 5384 5384 5383 5383 5382 5382 5381 5380 5380
5423 5421 5419 5417 5415 5413 5411 5409 5407 5406 5405 5404 5403 5402 5401 5400 5399 5398 5396 5394 5392 5391 5389 5388 5386 5385 5384 5383 5382 5381 5380 5379 5378 5377 5376 5376 5376 5375 5375 5374 5374 5373 5373
5415 5413 5411 5409 5407 5405 5402 5400 5399 5398 5397 5396 5394 5393 5392 5391 5390 5389 5387 5386 5384 5382 5381 5379 5378 5377 5376 5375 5374 5373 5372 5372 5371 5370 5369 5369 5368 5368 5367 5367 5367 5366 5366
5407 5405 5403 5401 5399 5397 5395 5393 5391 5390 5388 5387 5386 5385 5383 5382 5381 5380 5379 5377 5376 5374 5373 5371 5370 5368 5368 5367 5366 5366 5365 5364 5363 5363 5362 5362 5362 5361 5361 5360 5360 5360 5359